Weather History for Appleton, WI

Change the Weather History Date:

Thursday, February 7, 2013

  Actual Average Record
Temperature  
Mean Temperature 26 °F -  
Max Temperature 32 °F 26 °F 47 °F (1991)
Min Temperature 21 °F 8 °F -15 °F (1962)
Degree Days  
Heating Degree Days 38    
Moisture  
Dew Point 26 °F    
Average Humidity 98    
Maximum Humidity 100    
Minimum Humidity 93    
Precipitation  
Precipitation 0.00 in - - ()
Sea Level Pressure  
Sea Level Pressure 30.04 in    
Wind  
Wind Speed 8 mph (NE)    
Max Wind Speed 24 mph    
Max Gust Speed 32 mph    
Visibility 2 miles    
Events Fog , Snow    
Averages and records for this station are not official NWS values.
T = Trace of Precipitation, MM = Missing Value Source: NWS Daily Summary

Daily Weather History Graph

Daily Weather History Graph

Search for Another Location

Airport:

Trip Planner

Search our weather history database for the weather conditions in past years. The results will help you decide how hot, cold, wet, or windy it might be!

Date:

Astronomy

Feb. 07, 2013 Rise Set
Actual Time 7:04 AM CST 5:12 PM CST
Civil Twilight 6:34 AM CST 5:42 PM CST
Nautical Twilight 5:59 AM CST 6:17 PM CST
Astronomical Twilight 5:26 AM CST 6:51 PM CST
Moon 4:47 AM CST (2/7) 2:33 PM CST (2/7)
Length of Visible Light 11h 08m
Length of Day
10h 08m
Waning Crescent, 9% of the Moon is Illuminated
Feb 7
Waning Crescent
Feb 10
New
Feb 17
First Quarter
Feb 25
Full
Mar 4
Last Quarter

Hourly Weather History & Observations

Time (CST) Temp. Windchill Dew Point Humidity Pressure Visibility Wind Dir Wind Speed Gust Speed Precip Events Conditions
12:15 AM 28.4 °F 23.3 °F 28.4 °F 100% 30.07 in 2.0 mi ESE 4.6 mph - N/A   Overcast
12:35 AM 28.4 °F - 28.4 °F 100% 30.07 in 2.0 mi Calm Calm - N/A   Overcast
12:55 AM 28.4 °F 24.6 °F 28.4 °F 100% 30.07 in 2.0 mi East 3.5 mph - N/A   Overcast
1:15 AM 28.4 °F - 28.4 °F 100% 30.06 in 1.8 mi Calm Calm - N/A   Overcast
1:55 AM 28.4 °F 24.6 °F 28.4 °F 100% 30.05 in 1.8 mi ESE 3.5 mph - N/A   Overcast
2:15 AM 30.2 °F 26.7 °F 30.2 °F 100% 30.05 in 2.0 mi SE 3.5 mph - N/A   Overcast
2:35 AM 30.2 °F 23.4 °F 30.2 °F 100% 30.05 in 4.0 mi SSE 6.9 mph - N/A   Overcast
2:55 AM 32.0 °F 26.4 °F 30.2 °F 93% 30.04 in 4.0 mi SSE 5.8 mph - N/A   Overcast
3:15 AM 32.0 °F 28.7 °F 30.2 °F 93% 30.04 in 3.0 mi SE 3.5 mph - N/A   Overcast
3:35 AM 32.0 °F 27.5 °F 32.0 °F 100% 30.04 in 3.0 mi SE 4.6 mph - N/A   Overcast
3:55 AM 32.0 °F 28.7 °F 32.0 °F 100% 30.03 in 2.5 mi ESE 3.5 mph - N/A   Overcast
4:15 AM 32.0 °F - 32.0 °F 100% 30.04 in 2.0 mi Calm Calm - N/A   Overcast
5:15 AM 30.2 °F 24.3 °F 30.2 °F 100% 30.03 in 1.0 mi ENE 5.8 mph - N/A   Overcast
6:45 AM 28.4 °F 20.4 °F 28.4 °F 100% 30.03 in 1.0 mi NE 8.1 mph - N/A   Overcast
7:45 AM 26.6 °F 18.2 °F 26.6 °F 100% 30.04 in 0.5 mi NE 8.1 mph - N/A   Overcast
8:45 AM 26.6 °F 18.2 °F 26.6 °F 100% 30.04 in 0.2 mi NE 8.1 mph - N/A Fog Light Freezing Fog
9:45 AM 26.6 °F 16.8 °F 26.6 °F 100% 30.03 in 0.5 mi NNE 10.4 mph - N/A Fog Light Freezing Fog
10:23 AM 26.6 °F 18.2 °F 26.6 °F 100% 30.04 in 0.8 mi NNE 8.1 mph - N/A   Light Freezing Drizzle
10:45 AM 26.6 °F 18.2 °F 26.6 °F 100% 30.04 in 1.0 mi NNE 8.1 mph - N/A Fog Light Freezing Fog
11:45 AM 26.6 °F 16.8 °F 26.6 °F 100% 30.02 in 1.5 mi NNE 10.4 mph - N/A Snow Light Snow
1:45 PM 26.6 °F 15.2 °F 24.8 °F 93% 29.98 in 1.0 mi NNE 13.8 mph - N/A Snow Light Snow
2:50 PM 26.6 °F 15.7 °F 26.6 °F 100% 29.96 in 1.0 mi NNE 12.7 mph - N/A Snow Light Snow
3:45 PM 26.6 °F 13.8 °F 26.6 °F 100% 29.96 in 0.5 mi NNE 17.3 mph - N/A Snow Light Snow
4:45 PM 26.6 °F 15.2 °F 26.6 °F 100% 29.97 in 0.5 mi NNE 13.8 mph - N/A Snow Light Snow
5:08 PM 26.6 °F 13.8 °F 26.6 °F 100% 29.98 in 1.5 mi NNE 17.3 mph - N/A Snow Light Snow
5:45 PM 24.8 °F 11.5 °F 23.0 °F 93% 30.00 in 3.0 mi NE 17.3 mph 24.2 mph N/A Snow Light Snow
6:45 PM 21.2 °F 5.2 °F 21.2 °F 100% 30.02 in 2.0 mi NNE 21.9 mph - N/A Snow Light Snow
7:50 PM 21.2 °F 4.5 °F 19.4 °F 93% 30.05 in 1.5 mi NNE 24.2 mph 32.2 mph N/A Snow Light Snow
8:45 PM 21.2 °F 6.4 °F 19.4 °F 93% 30.06 in 1.2 mi NNE 18.4 mph 25.3 mph N/A Snow Light Snow
9:45 PM 21.2 °F 6.4 °F 19.4 °F 93% 30.08 in 1.5 mi North 18.4 mph - N/A Snow Light Snow
9:55 PM 21.2 °F 6.0 °F 21.2 °F 100% 30.08 in 1.5 mi North 19.6 mph - N/A Snow Light Snow
10:15 PM 21.2 °F 6.8 °F 21.2 °F 100% 30.09 in 2.0 mi North 17.3 mph 24.2 mph N/A Snow Light Snow
10:35 PM 21.2 °F 6.0 °F 19.4 °F 93% 30.09 in 1.8 mi NNE 19.6 mph 26.5 mph N/A Snow Light Snow
10:45 PM 21.2 °F 5.2 °F 19.4 °F 93% 30.09 in 2.0 mi North 21.9 mph 25.3 mph N/A Snow Light Snow
11:15 PM 21.2 °F 6.8 °F 21.2 °F 100% 30.09 in 2.0 mi NNE 17.3 mph - N/A Snow Light Snow
11:35 PM 21.2 °F 7.3 °F 21.2 °F 100% 30.09 in 3.0 mi North 16.1 mph - N/A Snow Light Snow